User: anonymous   Login
Location: Unspecified
(43.4680°N, 87.1740°E)
Time: 14:53:37
(UTC+00:00)
Language:

BREEZE-M DEB (TANK) - Orbit

View from above orbital plane
View from above orbital plane
View from above satellite
View from above satellite

Ground track
Ground track

The orbit data is extracted from the following two-line orbital elements,

1 36501U 10010C   21168.04766276  .00000694  00000-0  15585-3 0  9999
2 36501  49.6522  69.2961 4877984 185.2483 166.8429  5.80516522235354
Epoch (UTC): 17 June 2021 01:08:38
Eccentricity: 0.4877984
inclination: 49.6522°
perigee height: 320 km
apogee height: 13078 km
right ascension of ascending node: 69.2961°
argument of perigee: 185.2483°
revolutions per day: 5.80516522
mean anomaly at epoch: 166.8429°
orbit number at epoch: 23535

The dashed part of the orbit path shows where the satellite is in the earth's shadow,  

DLR